Moose Lake, MN

9:51 PM CDT on July 27, 2017 (GMT -0500)
Moose Lake-Carlton County

Weather History for KMZH - August, 2014

Change the Weather History Date:

Monday, August 11, 2014

  Actual Average Record
Temperature  
Mean Temperature 66 °F -  
Max Temperature 77 °F 78 °F 91 °F (1965)
Min Temperature 55 °F 49 °F 35 °F (1954)
Cooling Degree Days 1    
Growing Degree Days 16 (Base 50)    
Moisture  
Dew Point 58 °F    
Average Humidity 83    
Maximum Humidity 100    
Minimum Humidity 47    
Precipitation  
Precipitation 0.00 in - - ()
Sea Level Pressure  
Sea Level Pressure 30.02 in    
Wind  
Wind Speed 4 mph (NNE)    
Max Wind Speed 15 mph    
Max Gust Speed 20 mph    
Visibility 9 miles    
Events Rain , Thunderstorm    
Averages and records for this station are not official NWS values.
T = Trace of Precipitation, MM = Missing Value Source: NWS Daily Summary

Daily Weather History Graph

Daily Weather History Graph

Search for Another Location

Airport or City:

Trip Planner

Search our weather history database for the weather conditions in past years. The results will help you decide how hot, cold, wet, or windy it might be!

Date:

Astronomy

Aug. 11, 2014 Rise Set
Actual Time 6:04 AM CDT 8:27 PM CDT
Civil Twilight 5:31 AM CDT 9:00 PM CDT
Nautical Twilight 4:49 AM CDT 9:42 PM CDT
Astronomical Twilight 4:01 AM CDT 10:29 PM CDT
Moon 8:46 PM CDT (8/11) 7:17 AM CDT (8/11)
Length of Visible Light 15h 29m
Length of Day
14h 22m
Full, 99% of the Moon is Illuminated
Aug 11
Full
Aug 17
Last Quarter
Aug 25
New
Sep 2
First Quarter
Sep 8
Full

Hourly Weather History & Observations

Time (CDT) Temp. Dew Point Humidity Pressure Visibility Wind Dir Wind Speed Gust Speed Precip Events Conditions
12:14 AM 64.4 °F 62.6 °F 94% 30.00 in 7.0 mi NNE 3.5 mph - N/A   Overcast
12:34 AM 64.4 °F 62.6 °F 94% 29.99 in 7.0 mi Calm Calm - N/A   Overcast
12:54 AM 64.4 °F 62.6 °F 94% 29.99 in 5.0 mi Calm Calm - N/A   Overcast
1:14 AM 62.6 °F 62.6 °F 100% 29.99 in 5.0 mi NNE 3.5 mph - N/A   Overcast
1:34 AM 64.4 °F 62.6 °F 94% 29.99 in 5.0 mi Calm Calm - N/A   Overcast
1:54 AM 64.4 °F 62.6 °F 94% 29.98 in 5.0 mi North 3.5 mph - N/A   Overcast
2:14 AM 62.6 °F 62.6 °F 100% 29.98 in 7.0 mi NNE 3.5 mph - N/A   Overcast
2:34 AM 62.6 °F 62.6 °F 100% 29.98 in 7.0 mi North 4.6 mph - N/A   Overcast
3:14 AM 62.6 °F 60.8 °F 94% 29.98 in 7.0 mi North 9.2 mph - N/A Rain Rain
3:34 AM 62.6 °F 60.8 °F 94% 29.98 in 7.0 mi NNE 5.8 mph 9.2 mph N/A Rain Heavy Rain
3:54 AM 62.6 °F 60.8 °F 94% 29.97 in 7.0 mi NNE 8.1 mph - N/A Rain Light Rain
4:14 AM 62.6 °F 59.0 °F 88% 29.97 in 10.0 mi Calm Calm - N/A Rain Light Rain
4:34 AM 62.6 °F 59.0 °F 88% 29.98 in 10.0 mi Calm Calm - N/A Rain Rain
5:14 AM 60.8 °F 59.0 °F 94% 29.97 in 7.0 mi North 5.8 mph 16.1 mph N/A Rain Heavy Rain
5:34 AM 60.8 °F 59.0 °F 94% 29.97 in 10.0 mi NNE 3.5 mph - N/A Rain Light Rain
5:54 AM 60.8 °F 59.0 °F 94% 29.97 in 10.0 mi NNE 9.2 mph - N/A   Light Drizzle
6:14 AM 60.8 °F 59.0 °F 94% 29.97 in 10.0 mi NNE 4.6 mph - N/A   Overcast
6:34 AM 60.8 °F 59.0 °F 94% 29.98 in 10.0 mi Calm Calm - N/A   Overcast
6:54 AM 60.8 °F 59.0 °F 94% 29.99 in 10.0 mi Calm Calm - N/A   Overcast
7:14 AM 60.8 °F 59.0 °F 94% 29.99 in 10.0 mi North 4.6 mph - N/A   Overcast
7:34 AM 60.8 °F 59.0 °F 94% 29.99 in 10.0 mi North 5.8 mph - N/A   Overcast
7:54 AM 60.8 °F 59.0 °F 94% 30.01 in 10.0 mi Calm Calm - N/A   Overcast
8:14 AM 60.8 °F 59.0 °F 94% 30.01 in 10.0 mi Calm Calm - N/A   Overcast
8:34 AM 60.8 °F 59.0 °F 94% 30.01 in 10.0 mi Calm Calm - N/A   Overcast
8:54 AM 60.8 °F 59.0 °F 94% 30.01 in 10.0 mi Calm Calm - N/A   Mostly Cloudy
9:14 AM 62.6 °F 60.8 °F 94% 30.01 in 10.0 mi Calm Calm - N/A   Overcast
9:34 AM 62.6 °F 59.0 °F 88% 30.01 in 10.0 mi NNW 4.6 mph - N/A   Overcast
9:54 AM 62.6 °F 59.0 °F 88% 30.02 in 10.0 mi North 6.9 mph - N/A   Overcast
10:14 AM 62.6 °F 59.0 °F 88% 30.02 in 10.0 mi North 10.4 mph - N/A   Overcast
10:34 AM 64.4 °F 59.0 °F 83% 30.03 in 10.0 mi North 6.9 mph - N/A   Overcast
10:54 AM 64.4 °F 59.0 °F 83% 30.03 in 10.0 mi North 6.9 mph - N/A   Overcast
11:14 AM 66.2 °F 59.0 °F 78% 30.03 in 10.0 mi NNE 9.2 mph - N/A   Mostly Cloudy
11:34 AM 68.0 °F 59.0 °F 73% 30.02 in 10.0 mi North 11.5 mph - N/A   Mostly Cloudy
11:54 AM 69.8 °F 59.0 °F 68% 30.02 in 10.0 mi North 6.9 mph 16.1 mph N/A   Scattered Clouds
12:14 PM 71.6 °F 59.0 °F 64% 30.02 in 10.0 mi North 12.7 mph 17.3 mph N/A   Scattered Clouds
12:34 PM 71.6 °F 59.0 °F 64% 30.01 in 10.0 mi NNE 15.0 mph - N/A   Scattered Clouds
12:54 PM 71.6 °F 57.2 °F 60% 30.02 in 10.0 mi NNW 12.7 mph 18.4 mph N/A   Mostly Cloudy
1:14 PM 73.4 °F 59.0 °F 61% 30.02 in 10.0 mi North 10.4 mph - N/A   Mostly Cloudy
1:34 PM 71.6 °F 57.2 °F 60% 30.02 in 10.0 mi North 3.5 mph - N/A   Mostly Cloudy
1:54 PM 73.4 °F 55.4 °F 53% 30.02 in 10.0 mi North 5.8 mph - N/A   Mostly Cloudy
2:14 PM 71.6 °F 55.4 °F 57% 30.02 in 10.0 mi North 9.2 mph 18.4 mph N/A   Mostly Cloudy
2:34 PM 73.4 °F 53.6 °F 50% 30.02 in 10.0 mi North 10.4 mph 16.1 mph N/A   Mostly Cloudy
2:54 PM 73.4 °F 53.6 °F 50% 30.01 in 10.0 mi North 10.4 mph - N/A   Scattered Clouds
3:14 PM 77.0 °F 55.4 °F 47% 30.01 in 10.0 mi North 10.4 mph - N/A   Scattered Clouds
3:34 PM 73.4 °F 53.6 °F 50% 30.01 in 10.0 mi NNE 12.7 mph 19.6 mph N/A   Mostly Cloudy
3:54 PM 71.6 °F 53.6 °F 53% 30.01 in 10.0 mi North 8.1 mph - N/A   Scattered Clouds
4:14 PM 71.6 °F 59.0 °F 64% 30.02 in 10.0 mi ENE 3.5 mph - N/A Thunderstorm Mostly Cloudy
4:34 PM 69.8 °F 59.0 °F 68% 30.03 in 10.0 mi East 4.6 mph - N/A   Mostly Cloudy
4:54 PM 69.8 °F 59.0 °F 68% 30.04 in 10.0 mi ENE 6.9 mph - N/A   Overcast
5:34 PM 64.4 °F 59.0 °F 83% 30.04 in 2.5 mi ENE 4.6 mph - N/A Rain Light Rain
5:54 PM 66.2 °F 60.8 °F 83% 30.04 in 10.0 mi NE 4.6 mph - N/A   Scattered Clouds
6:14 PM 66.2 °F 60.8 °F 83% 30.05 in 10.0 mi ENE 5.8 mph - N/A   Mostly Cloudy
6:34 PM 66.2 °F 59.0 °F 78% 30.05 in 10.0 mi ENE 6.9 mph - N/A   Mostly Cloudy
6:54 PM 64.4 °F 59.0 °F 83% 30.06 in 10.0 mi ENE 5.8 mph - N/A Rain Light Rain
7:14 PM 64.4 °F 59.0 °F 83% 30.05 in 10.0 mi ENE 3.5 mph - N/A   Mostly Cloudy
7:34 PM 62.6 °F 59.0 °F 88% 30.05 in 10.0 mi NE 4.6 mph - N/A   Scattered Clouds
7:54 PM 62.6 °F 59.0 °F 88% 30.05 in 10.0 mi Calm Calm - N/A   Mostly Cloudy
8:14 PM 62.6 °F 57.2 °F 82% 30.05 in 10.0 mi ENE 3.5 mph - N/A   Mostly Cloudy
8:34 PM 60.8 °F 55.4 °F 82% 30.05 in 10.0 mi NE 3.5 mph - N/A   Scattered Clouds
8:54 PM 60.8 °F 55.4 °F 82% 30.06 in 10.0 mi Calm Calm - N/A   Scattered Clouds
9:14 PM 60.8 °F 57.2 °F 88% 30.07 in 10.0 mi Calm Calm - N/A   Overcast
9:34 PM 60.8 °F 57.2 °F 88% 30.07 in 10.0 mi Calm Calm - N/A   Overcast
9:54 PM 59.0 °F 55.4 °F 88% 30.06 in 10.0 mi Calm Calm - N/A   Mostly Cloudy
10:14 PM 57.2 °F 55.4 °F 94% 30.06 in 10.0 mi Calm Calm - N/A   Scattered Clouds
10:34 PM 55.4 °F 53.6 °F 94% 30.07 in 2.0 mi Calm Calm - N/A   Scattered Clouds
10:54 PM 55.4 °F 55.4 °F 100% 30.06 in 1.5 mi Calm Calm - N/A   Mostly Cloudy
11:14 PM 55.4 °F 53.6 °F 94% 30.06 in 10.0 mi Calm Calm - N/A   Mostly Cloudy
11:34 PM 55.4 °F 55.4 °F 100% 30.06 in 10.0 mi Calm Calm - N/A   Mostly Cloudy
11:54 PM 55.4 °F 53.6 °F 94% 30.06 in 7.0 mi Calm Calm - N/A   Scattered Clouds